Flag for Pakistan Weather past 2 weeks in Sargodha, Pakistan

Now
84 °F

Passing clouds.


Feels Like: 91 °F
Forecast: 86 / 106 °F
Wind: 3 mph from North

Location: Lahore Airport

Current Time: Jul 3, 2015 at 3:26:07 AM

Latest Report: Jul 3, 2015 at 2:25 AM


Visibility: 2 mi

Pressure: 29.56 "Hg

Humidity: 70%

Dew point: 73 °F

Location of SargodhaLocation

Historic Weather in Sargodha — Graph

°F

Sargodha temperature yesterday

Maximum temperature yesterday: 99 °F (at 1:55 PM)
Minimum temperature yesterday: 82 °F (at 4:55 AM)
Average temperature yesterday: 90 °F

Past Weeks' High & Low Weather Summary

 TemperatureHumidityPressure
High109 °F (Jun 18, 1:55 PM)100% (Jun 23, 11:25 AM)29.74 "Hg (Jun 23, 11:25 AM)
Low73 °F (Jun 25, 5:00 AM)23% (Jun 18, 1:55 PM)29.36 "Hg (Jun 22, 4:55 PM)
Average90 °F55%29.51 "Hg
* Reported Jun 18 1:00 AM — Jul 3 1:55 AM, Sargodha, Weather by CustomWeather, © 2015

Note: Actual official high and low records may vary slightly from our data, if they occured in-between our weather recording intervals... More about our weather records

Advertising

Sargodha weather history for previous 24 hours

 ConditionsComfort  
Time TempWeatherWind HumidityBarometerVisibility
1:55 AM
Fri, Jul 3
84 °FPassing clouds.3 mph70%29.59 "Hg2 mi
1:25 AM84 °FPassing clouds.No wind70%29.59 "Hg2 mi
12:55 AM86 °FPassing clouds.No wind66%29.59 "Hg2 mi
12:25 AM86 °FPassing clouds.No wind70%29.59 "Hg2 mi
11:55 PM
Thu, Jul 2
86 °FPassing clouds.No wind70%29.59 "Hg2 mi
11:25 PM86 °FPassing clouds.5 mph70%29.59 "Hg2 mi
10:55 PM86 °FPassing clouds.3 mph70%29.59 "Hg2 mi
10:25 PM86 °FPassing clouds.3 mph70%29.59 "Hg2 mi
9:55 PM86 °FPassing clouds.No wind70%29.59 "Hg2 mi
9:25 PM88 °FPassing clouds.No wind66%29.59 "Hg2 mi
8:55 PM88 °FPassing clouds.3 mph66%29.59 "Hg2 mi
8:25 PM90 °FPassing clouds.7 mph59%29.59 "Hg2 mi
7:55 PM90 °FPassing clouds.7 mph59%29.56 "Hg2 mi
7:25 PM91 °FPassing clouds.7 mph59%29.56 "Hg2 mi
6:55 PM91 °FScattered clouds.5 mph59%29.56 "Hg2 mi
6:25 PM91 °FScattered clouds.5 mph59%29.56 "Hg2 mi
5:55 PM91 °FScattered clouds.No wind59%29.56 "Hg2 mi
5:25 PM90 °FScattered clouds.5 mph67%29.56 "Hg2 mi
4:55 PM86 °FScattered clouds.5 mph79%29.56 "Hg2 mi
4:25 PM86 °FThunderstorms. Broken clouds.18 mph79%29.59 "Hg1 mi
3:55 PM93 °FThunderstorms. Broken clouds.7 mph63%29.59 "Hg2 mi
3:30 PM93 °FThunderstorms. Broken clouds.15 mph53%29.59 "Hg2 mi
3:00 PM97 °FBroken clouds.21 mph47%29.59 "Hg1 mi
2:25 PM99 °FScattered clouds.5 mph44%29.59 "Hg2 mi
1:55 PM99 °FScattered clouds.6 mph44%29.62 "Hg3 mi
1:25 PM97 °FScattered clouds.7 mph44%29.62 "Hg3 mi
1:00 PM97 °FScattered clouds.6 mph44%29.65 "Hg3 mi
12:25 PM97 °FScattered clouds.5 mph47%29.65 "Hg3 mi
11:55 AM97 °FScattered clouds.6 mph47%29.65 "Hg3 mi
11:25 AM97 °FScattered clouds.6 mph44%29.65 "Hg3 mi
10:55 AM95 °FScattered clouds.6 mph47%29.68 "Hg3 mi
10:25 AM93 °FScattered clouds.5 mph53%29.68 "Hg3 mi
9:55 AM93 °FScattered clouds.6 mph53%29.68 "Hg3 mi
4:55 AM82 °FPassing clouds.No wind70%29.62 "Hg2 mi
4:25 AM84 °FPassing clouds.3 mph70%29.65 "Hg2 mi
3:25 AM84 °FPassing clouds.8 mph70%29.65 "Hg2 mi
Weather by CustomWeather, © 2015

See weather overviewHow to use our weather pages